探险者 7(EXPLORER 7)

导读 | 星芒AI

EXPLORER 7 是美国于1959年10月13日发射的第二颗成功运行的人造卫星,主要用于研究地球电离层。该卫星携带了三台科学仪器,测量电离层的电子密度,并首次发现电离层中存在两个主要电子浓度层。EXPLORER 7 的轨道为椭圆形,近地点约235公里,远地点约1,500公里,设计寿命为30天,但实际运行超过一年。该卫星为后续的电离层研究和空间探测奠定了基础,是美国早期空间科学的重要里程碑。

基本信息
目录编号:
22
目录名称:
EXPLORER 7
国际标识:
1959-009A
轨道中心:
EARTH
卫星名称:
探险者 7
卫星全名:
--
卫星状态:
在轨 (已飞行24168 天)
发射日期:
1959-10-13 UTC
国别 :
美国 (US)
星等 :
--
轨道信息
数据来源 国际轨道数据
星历时间: 2025-12-13T07:27:25+0800
10小时前
查看轨道信息
半长轴: 6872.674km
偏心率: 0.0085819
轨道倾角: 50.256°
近地点辐角 95.196°
升交点赤经 297.744°
平近点角 265.880°
近地点: 435.558km
远地点: 553.52km
周期: 94.504分钟
每日圈数: 15.237515
详细信息
使用方式:
暂无
2D轨道图
3D轨道图
轨道高度分析图
轨道倾角分析图
轨道综合分析图
查看轨道综合分析图